Terminal Aerodrome Forecast
Issued by NWS Charleston, WV

Home | Current Version | Previous Version | Text Only | Print | Product List | Glossary On
Versions: 1 2 3 4 5 6 7 8 9 10 11 12 13 14 15 16 17 18 19 20 21 22 23 24 25 26 27 28 29 30 31 32 33
000
FTUS41 KRLX 281300 AAA
TAFCRW
TAF AMD
KCRW 281320Z 2813/2912 01003KT 1SM BR BKN001 OVC006
      TEMPO 2813/2814 4SM BR BKN006 OVC015
     FM281400 36004KT 4SM BR BKN006 OVC015
      TEMPO 2814/2816 6SM BR HZ BKN015 OVC025
     FM281600 03003KT P6SM BKN015 BKN025
      TEMPO 2816/2818 SCT025
     FM281800 36005KT P6SM SCT035
     FM290100 VRB03KT P6SM FEW100
     FM290700 00000KT 5SM BR FEW100
     FM291000 00000KT 2SM BR FEW080=

USA.gov is the U.S. government's official web portal to all federal, state and local government web resources and services.